Time,TemperatureF,DewpointF,PressureIn,WindDirection,WindDirectionDegrees,WindSpeedMPH,WindSpeedGustMPH,Humidity,HourlyPrecipIn,Conditions,Clouds,dailyrainin,SoftwareType,DateUTC
2013-01-07 00:00:00,20.5,15.8,30.23,SSW,203,2.9,5.8,82,0.00,,,0.00,WUHU216HW,2013-01-07 06:00:00,
2013-01-07 00:05:00,20.5,15.8,30.23,WSW,248,2.5,5.4,82,0.00,,,0.00,WUHU216HW,2013-01-07 06:05:00,
2013-01-07 00:10:00,20.9,16.2,30.22,SSE,158,4.0,7.4,82,0.00,,,0.00,WUHU216HW,2013-01-07 06:10:00,
2013-01-07 00:15:00,21.1,16.4,30.21,SSW,203,3.8,10.1,82,0.00,,,0.00,WUHU216HW,2013-01-07 06:15:00,
2013-01-07 00:20:00,21.2,16.6,30.21,SSE,158,4.3,10.1,82,0.00,,,0.00,WUHU216HW,2013-01-07 06:20:00,
2013-01-07 00:25:00,21.6,16.9,30.21,West,270,0.9,9.2,82,0.00,,,0.00,WUHU216HW,2013-01-07 06:25:00,
2013-01-07 00:30:00,22.0,17.3,30.21,SSW,203,5.1,9.2,82,0.00,,,0.00,WUHU216HW,2013-01-07 06:30:00,
2013-01-07 00:35:00,22.0,17.3,30.20,WSW,248,1.8,6.3,82,0.00,,,0.00,WUHU216HW,2013-01-07 06:35:00,
2013-01-07 00:40:00,22.1,17.5,30.20,SSW,203,2.5,8.3,82,0.00,,,0.00,WUHU216HW,2013-01-07 06:40:00,
2013-01-07 00:45:00,22.3,17.4,30.20,South,180,2.7,8.3,81,0.00,,,0.00,WUHU216HW,2013-01-07 06:45:00,
2013-01-07 00:50:00,22.7,18.0,30.19,ESE,113,8.3,8.3,82,0.00,,,0.00,WUHU216HW,2013-01-07 06:50:00,
2013-01-07 00:55:00,22.9,17.9,30.19,ENE,68,2.9,8.3,81,0.00,,,0.00,WUHU216HW,2013-01-07 06:55:00,
2013-01-07 01:00:00,23.0,18.1,30.18,North,0,0.0,8.3,81,0.00,,,0.00,WUHU216HW,2013-01-07 07:00:00,
2013-01-07 01:05:00,23.4,18.5,30.18,North,0,0.0,2.9,81,0.00,,,0.00,WUHU216HW,2013-01-07 07:05:00,
2013-01-07 01:10:00,23.8,18.8,30.17,North,0,0.0,0.0,81,0.00,,,0.00,WUHU216HW,2013-01-07 07:10:00,
2013-01-07 01:15:00,23.9,19.0,30.17,North,0,0.0,0.0,81,0.00,,,0.00,WUHU216HW,2013-01-07 07:15:00,
2013-01-07 01:20:00,24.1,18.9,30.17,North,0,0.0,0.0,80,0.00,,,0.00,WUHU216HW,2013-01-07 07:20:00,
2013-01-07 01:25:00,24.1,18.9,30.17,North,0,0.0,0.0,80,0.00,,,0.00,WUHU216HW,2013-01-07 07:25:00,
2013-01-07 01:30:00,24.3,19.1,30.16,North,0,0.0,0.0,80,0.00,,,0.00,WUHU216HW,2013-01-07 07:30:00,
2013-01-07 01:35:00,24.5,19.3,30.16,North,0,0.0,0.0,80,0.00,,,0.00,WUHU216HW,2013-01-07 07:35:00,
2013-01-07 01:40:00,24.7,19.4,30.16,North,0,0.0,0.0,80,0.00,,,0.00,WUHU216HW,2013-01-07 07:40:00,
2013-01-07 01:45:00,24.8,19.6,30.16,North,0,0.0,0.0,80,0.00,,,0.00,WUHU216HW,2013-01-07 07:45:00,
2013-01-07 01:50:00,24.8,19.6,30.16,North,0,0.0,0.0,80,0.00,,,0.00,WUHU216HW,2013-01-07 07:50:00,
2013-01-07 01:55:00,25.2,20.0,30.16,North,0,0.0,0.0,80,0.00,,,0.00,WUHU216HW,2013-01-07 07:55:00,
2013-01-07 02:00:00,25.4,20.3,30.16,North,0,0.0,0.0,81,0.00,,,0.00,WUHU216HW,2013-01-07 08:00:00,
2013-01-07 02:05:00,25.6,20.5,30.16,North,0,0.0,0.0,81,0.00,,,0.00,WUHU216HW,2013-01-07 08:05:00,
2013-01-07 02:10:00,25.6,20.3,30.15,North,0,0.0,0.0,80,0.00,,,0.00,WUHU216HW,2013-01-07 08:10:00,
2013-01-07 02:15:00,25.7,20.4,30.15,North,0,0.0,0.0,80,0.00,,,0.00,WUHU216HW,2013-01-07 08:15:00,
2013-01-07 02:20:00,26.1,21.1,30.15,WSW,248,3.4,5.4,81,0.00,,,0.00,WUHU216HW,2013-01-07 08:20:00,
2013-01-07 02:25:00,26.5,21.1,30.14,South,180,2.7,9.4,80,0.00,,,0.00,WUHU216HW,2013-01-07 08:25:00,
2013-01-07 02:30:00,26.6,21.2,30.14,ENE,68,7.2,9.4,80,0.00,,,0.00,WUHU216HW,2013-01-07 08:30:00,
2013-01-07 02:35:00,26.8,21.2,30.14,SSW,203,6.0,7.8,79,0.00,,,0.00,WUHU216HW,2013-01-07 08:35:00,
2013-01-07 02:40:00,27.0,21.3,30.15,NNW,338,4.0,10.5,79,0.00,,,0.00,WUHU216HW,2013-01-07 08:40:00,
2013-01-07 02:45:00,27.2,21.5,30.15,SSW,203,8.3,12.8,79,0.00,,,0.00,WUHU216HW,2013-01-07 08:45:00,
2013-01-07 02:50:00,27.4,21.7,30.14,SSW,203,6.3,12.8,79,0.00,,,0.00,WUHU216HW,2013-01-07 08:50:00,
2013-01-07 02:55:00,27.5,21.9,30.14,West,270,5.4,11.4,79,0.00,,,0.00,WUHU216HW,2013-01-07 08:55:00,
2013-01-07 03:00:00,27.7,22.1,30.14,SW,225,4.0,10.7,79,0.00,,,0.00,WUHU216HW,2013-01-07 09:00:00,
2013-01-07 03:05:00,27.7,22.1,30.14,North,0,0.0,8.9,79,0.00,,,0.00,WUHU216HW,2013-01-07 09:05:00,
2013-01-07 03:10:00,27.9,22.2,30.14,North,0,0.0,4.0,79,0.00,,,0.00,WUHU216HW,2013-01-07 09:10:00,
2013-01-07 03:15:00,27.9,21.9,30.14,North,0,0.0,0.0,78,0.00,,,0.00,WUHU216HW,2013-01-07 09:15:00,
2013-01-07 03:20:00,27.9,21.9,30.14,North,0,0.0,0.0,78,0.00,,,0.00,WUHU216HW,2013-01-07 09:20:00,
2013-01-07 03:25:00,27.7,21.7,30.14,North,0,0.0,0.0,78,0.00,,,0.00,WUHU216HW,2013-01-07 09:25:00,
2013-01-07 03:30:00,27.7,21.4,30.15,North,0,0.0,0.0,77,0.00,,,0.00,WUHU216HW,2013-01-07 09:30:00,
2013-01-07 03:35:00,27.7,21.4,30.15,North,0,0.0,0.0,77,0.00,,,0.00,WUHU216HW,2013-01-07 09:35:00,
2013-01-07 03:40:00,27.7,21.4,30.15,North,0,0.0,0.0,77,0.00,,,0.00,WUHU216HW,2013-01-07 09:40:00,
2013-01-07 03:45:00,27.5,21.3,30.14,North,0,0.0,0.0,77,0.00,,,0.00,WUHU216HW,2013-01-07 09:45:00,
2013-01-07 03:50:00,27.5,21.3,30.14,North,0,0.0,0.0,77,0.00,,,0.00,WUHU216HW,2013-01-07 09:50:00,
2013-01-07 03:55:00,27.5,21.3,30.13,North,0,0.0,0.0,77,0.00,,,0.00,WUHU216HW,2013-01-07 09:55:00,
2013-01-07 04:00:00,27.5,21.3,30.14,North,0,0.0,0.0,77,0.00,,,0.00,WUHU216HW,2013-01-07 10:00:00,
2013-01-07 04:05:00,27.7,21.4,30.13,North,0,0.0,0.0,77,0.00,,,0.00,WUHU216HW,2013-01-07 10:05:00,
2013-01-07 04:10:00,27.9,21.6,30.13,North,0,0.0,0.0,77,0.00,,,0.00,WUHU216HW,2013-01-07 10:10:00,
2013-01-07 04:15:00,28.3,22.0,30.12,North,0,0.0,0.0,77,0.00,,,0.00,WUHU216HW,2013-01-07 10:15:00,
2013-01-07 04:20:00,28.4,22.2,30.12,North,0,0.0,0.0,77,0.00,,,0.00,WUHU216HW,2013-01-07 10:20:00,
2013-01-07 04:25:00,29.0,22.7,30.13,North,0,0.0,0.0,77,0.00,,,0.00,WUHU216HW,2013-01-07 10:25:00,
2013-01-07 04:30:00,29.2,22.9,30.13,North,0,0.0,0.0,77,0.00,,,0.00,WUHU216HW,2013-01-07 10:30:00,
2013-01-07 04:35:00,29.2,22.9,30.13,North,0,0.0,0.0,77,0.00,,,0.00,WUHU216HW,2013-01-07 10:35:00,
2013-01-07 04:40:00,29.2,22.5,30.13,North,0,0.0,0.0,76,0.00,,,0.00,WUHU216HW,2013-01-07 10:40:00,
2013-01-07 04:45:00,29.2,22.5,30.13,North,0,0.0,0.0,76,0.00,,,0.00,WUHU216HW,2013-01-07 10:45:00,
2013-01-07 04:50:00,29.0,22.3,30.13,North,0,0.0,0.0,76,0.00,,,0.00,WUHU216HW,2013-01-07 10:50:00,
2013-01-07 04:55:00,29.0,22.3,30.14,North,0,0.0,0.0,76,0.00,,,0.00,WUHU216HW,2013-01-07 10:55:00,
2013-01-07 05:00:00,28.8,22.1,30.13,North,0,0.0,0.0,76,0.00,,,0.00,WUHU216HW,2013-01-07 11:00:00,
2013-01-07 05:05:00,28.8,22.1,30.14,North,0,0.0,0.0,76,0.00,,,0.00,WUHU216HW,2013-01-07 11:05:00,
2013-01-07 05:10:00,28.8,22.1,30.14,North,0,0.0,0.0,76,0.00,,,0.00,WUHU216HW,2013-01-07 11:10:00,
2013-01-07 05:15:00,28.8,22.1,30.14,North,0,0.0,0.0,76,0.00,,,0.00,WUHU216HW,2013-01-07 11:15:00,
2013-01-07 05:20:00,28.8,22.1,30.14,North,0,0.0,0.0,76,0.00,,,0.00,WUHU216HW,2013-01-07 11:20:00,
2013-01-07 05:25:00,28.8,22.1,30.14,North,0,0.0,0.0,76,0.00,,,0.00,WUHU216HW,2013-01-07 11:25:00,
2013-01-07 05:30:00,28.8,22.5,30.14,North,0,0.0,0.0,77,0.00,,,0.00,WUHU216HW,2013-01-07 11:30:00,
2013-01-07 05:35:00,28.6,22.3,30.14,North,0,0.0,0.0,77,0.00,,,0.00,WUHU216HW,2013-01-07 11:35:00,
2013-01-07 05:40:00,28.6,22.3,30.14,North,0,0.0,0.0,77,0.00,,,0.00,WUHU216HW,2013-01-07 11:40:00,
2013-01-07 05:45:00,28.8,22.5,30.13,SSW,203,8.5,8.5,77,0.00,,,0.00,WUHU216HW,2013-01-07 11:45:00,
2013-01-07 05:50:00,28.8,22.1,30.13,SW,225,1.3,8.5,76,0.00,,,0.00,WUHU216HW,2013-01-07 11:50:00,
2013-01-07 05:55:00,28.6,22.3,30.13,SW,225,3.4,7.6,77,0.00,,,0.00,WUHU216HW,2013-01-07 11:55:00,
2013-01-07 06:00:00,28.4,22.2,30.13,SE,135,2.0,7.4,77,0.00,,,0.00,WUHU216HW,2013-01-07 12:00:00,
2013-01-07 06:05:00,28.4,22.2,30.13,SSW,203,6.5,7.4,77,0.00,,,0.00,WUHU216HW,2013-01-07 12:05:00,
2013-01-07 06:10:00,28.4,22.2,30.13,SSW,203,9.2,9.2,77,0.00,,,0.00,WUHU216HW,2013-01-07 12:10:00,
2013-01-07 06:15:00,28.4,22.2,30.13,West,270,3.4,9.2,77,0.00,,,0.00,WUHU216HW,2013-01-07 12:15:00,
2013-01-07 06:20:00,28.4,22.2,30.13,SSW,203,5.1,9.2,77,0.00,,,0.00,WUHU216HW,2013-01-07 12:20:00,
2013-01-07 06:25:00,28.4,22.2,30.14,WSW,248,5.4,9.2,77,0.00,,,0.00,WUHU216HW,2013-01-07 12:25:00,
2013-01-07 06:30:00,28.4,22.2,30.14,SSW,203,5.4,9.8,77,0.00,,,0.00,WUHU216HW,2013-01-07 12:30:00,
2013-01-07 06:35:00,28.4,22.2,30.14,SSW,203,2.9,9.8,77,0.00,,,0.00,WUHU216HW,2013-01-07 12:35:00,
2013-01-07 06:40:00,28.4,22.2,30.14,SSW,203,8.9,8.9,77,0.00,,,0.00,WUHU216HW,2013-01-07 12:40:00,
2013-01-07 06:45:00,28.3,22.0,30.13,SSW,203,6.3,8.9,77,0.00,,,0.00,WUHU216HW,2013-01-07 12:45:00,
2013-01-07 06:50:00,28.3,22.0,30.13,SW,225,8.1,11.6,77,0.00,,,0.00,WUHU216HW,2013-01-07 12:50:00,
2013-01-07 06:55:00,28.3,22.0,30.13,WSW,248,4.3,11.6,77,0.00,,,0.00,WUHU216HW,2013-01-07 12:55:00,
2013-01-07 07:00:00,28.3,22.0,30.13,SW,225,4.3,8.1,77,0.00,,,0.00,WUHU216HW,2013-01-07 13:00:00,
2013-01-07 07:05:00,28.1,21.8,30.14,South,180,3.6,7.6,77,0.00,,,0.00,WUHU216HW,2013-01-07 13:05:00,
2013-01-07 07:10:00,28.1,21.8,30.14,SW,225,1.8,6.3,77,0.00,,,0.00,WUHU216HW,2013-01-07 13:10:00,
2013-01-07 07:15:00,28.1,21.8,30.14,SSW,203,2.9,5.6,77,0.00,,,0.00,WUHU216HW,2013-01-07 13:15:00,
2013-01-07 07:20:00,27.9,21.6,30.14,West,270,3.1,6.3,77,0.00,,,0.00,WUHU216HW,2013-01-07 13:20:00,
2013-01-07 07:25:00,27.9,21.6,30.14,SSW,203,3.8,6.5,77,0.00,,,0.00,WUHU216HW,2013-01-07 13:25:00,
2013-01-07 07:30:00,27.7,21.4,30.14,SSW,203,2.7,6.5,77,0.00,,,0.00,WUHU216HW,2013-01-07 13:30:00,
2013-01-07 07:35:00,27.7,21.4,30.13,SW,225,1.3,6.9,77,0.00,,,0.00,WUHU216HW,2013-01-07 13:35:00,
2013-01-07 07:40:00,27.7,21.4,30.13,WSW,248,1.1,6.9,77,0.00,,,0.00,WUHU216HW,2013-01-07 13:40:00,
2013-01-07 07:45:00,27.5,21.3,30.13,SSW,203,3.4,4.5,77,0.00,,,0.00,WUHU216HW,2013-01-07 13:45:00,
2013-01-07 07:50:00,27.4,21.3,30.14,West,270,6.0,7.4,78,0.00,,,0.00,WUHU216HW,2013-01-07 13:50:00,
2013-01-07 07:55:00,27.4,21.3,30.14,WSW,248,0.4,7.4,78,0.00,,,0.00,WUHU216HW,2013-01-07 13:55:00,
2013-01-07 08:00:00,27.4,21.3,30.14,SSW,203,2.5,6.0,78,0.00,,,0.00,WUHU216HW,2013-01-07 14:00:00,
2013-01-07 08:05:00,27.4,21.3,30.13,SW,225,2.7,4.9,78,0.00,,,0.00,WUHU216HW,2013-01-07 14:05:00,
2013-01-07 08:10:00,27.4,21.3,30.14,SSE,158,2.9,4.9,78,0.00,,,0.00,WUHU216HW,2013-01-07 14:10:00,
2013-01-07 08:15:00,27.4,21.3,30.13,West,270,3.4,4.7,78,0.00,,,0.00,WUHU216HW,2013-01-07 14:15:00,
2013-01-07 08:20:00,27.2,21.2,30.13,SW,225,2.0,4.7,78,0.00,,,0.00,WUHU216HW,2013-01-07 14:20:00,
2013-01-07 08:25:00,27.2,21.2,30.14,WSW,248,2.7,4.5,78,0.00,,,0.00,WUHU216HW,2013-01-07 14:25:00,
2013-01-07 08:30:00,27.2,21.2,30.14,SSW,203,2.0,3.1,78,0.00,,,0.00,WUHU216HW,2013-01-07 14:30:00,
2013-01-07 08:35:00,27.4,21.3,30.14,SSW,203,1.1,3.1,78,0.00,,,0.00,WUHU216HW,2013-01-07 14:35:00,
2013-01-07 08:40:00,27.4,21.3,30.14,SSW,203,4.9,4.9,78,0.00,,,0.00,WUHU216HW,2013-01-07 14:40:00,
2013-01-07 08:45:00,27.4,21.3,30.14,West,270,0.9,4.9,78,0.00,,,0.00,WUHU216HW,2013-01-07 14:45:00,
2013-01-07 08:50:00,27.4,21.3,30.14,SW,225,2.5,4.7,78,0.00,,,0.00,WUHU216HW,2013-01-07 14:50:00,
2013-01-07 08:55:00,27.5,21.5,30.14,SSW,203,3.4,5.4,78,0.00,,,0.00,WUHU216HW,2013-01-07 14:55:00,
2013-01-07 09:00:00,27.5,21.5,30.14,SSW,203,2.7,5.4,78,0.00,,,0.00,WUHU216HW,2013-01-07 15:00:00,
2013-01-07 09:05:00,27.7,21.7,30.14,South,180,6.7,6.7,78,0.00,,,0.00,WUHU216HW,2013-01-07 15:05:00,
2013-01-07 09:10:00,27.7,21.7,30.14,South,180,4.0,6.9,78,0.00,,,0.00,WUHU216HW,2013-01-07 15:10:00,
2013-01-07 09:15:00,27.7,21.7,30.14,SW,225,1.8,6.9,78,0.00,,,0.00,WUHU216HW,2013-01-07 15:15:00,
2013-01-07 09:20:00,27.9,21.9,30.15,SW,225,1.6,4.0,78,0.00,,,0.00,WUHU216HW,2013-01-07 15:20:00,
2013-01-07 09:25:00,28.1,22.1,30.15,SSE,158,1.3,6.0,78,0.00,,,0.00,WUHU216HW,2013-01-07 15:25:00,
2013-01-07 09:30:00,28.4,22.4,30.15,West,270,2.0,6.0,78,0.00,,,0.00,WUHU216HW,2013-01-07 15:30:00,
2013-01-07 09:35:00,28.6,22.6,30.15,SW,225,2.5,5.1,78,0.00,,,0.00,WUHU216HW,2013-01-07 15:35:00,
2013-01-07 09:40:00,29.0,23.0,30.16,West,270,2.5,6.0,78,0.00,,,0.00,WUHU216HW,2013-01-07 15:40:00,
2013-01-07 09:45:00,29.3,23.3,30.16,SSE,158,1.6,7.8,78,0.00,,,0.00,WUHU216HW,2013-01-07 15:45:00,
2013-01-07 09:50:00,29.7,23.3,30.16,WSW,248,2.9,7.8,77,0.00,,,0.00,WUHU216HW,2013-01-07 15:50:00,
2013-01-07 09:55:00,29.9,23.9,30.16,SSW,203,5.6,9.8,78,0.00,,,0.00,WUHU216HW,2013-01-07 15:55:00,
2013-01-07 10:00:00,30.1,24.0,30.16,South,180,9.8,11.6,78,0.00,,,0.00,WUHU216HW,2013-01-07 16:00:00,
2013-01-07 10:05:00,30.4,24.4,30.16,SSW,203,4.5,11.6,78,0.00,,,0.00,WUHU216HW,2013-01-07 16:05:00,
2013-01-07 10:10:00,30.6,24.2,30.17,WSW,248,6.9,9.8,77,0.00,,,0.00,WUHU216HW,2013-01-07 16:10:00,
2013-01-07 10:15:00,30.6,24.2,30.18,SSW,203,3.8,6.9,77,0.00,,,0.00,WUHU216HW,2013-01-07 16:15:00,
2013-01-07 10:20:00,30.8,24.4,30.18,West,270,3.1,7.6,77,0.00,,,0.00,WUHU216HW,2013-01-07 16:20:00,
2013-01-07 10:25:00,31.0,24.6,30.18,West,270,7.2,7.6,77,0.00,,,0.00,WUHU216HW,2013-01-07 16:25:00,
2013-01-07 10:30:00,31.3,24.9,30.17,SSW,203,3.6,8.9,77,0.00,,,0.00,WUHU216HW,2013-01-07 16:30:00,
2013-01-07 10:35:00,31.5,24.9,30.17,South,180,7.4,8.9,76,0.00,,,0.00,WUHU216HW,2013-01-07 16:35:00,
2013-01-07 10:40:00,31.7,25.0,30.17,WSW,248,3.1,10.1,76,0.00,,,0.00,WUHU216HW,2013-01-07 16:40:00,
2013-01-07 10:45:00,32.0,25.4,30.17,West,270,4.9,10.1,76,0.00,,,0.00,WUHU216HW,2013-01-07 16:45:00,
2013-01-07 10:50:00,32.0,25.4,30.17,WSW,248,4.0,7.4,76,0.00,,,0.00,WUHU216HW,2013-01-07 16:50:00,
2013-01-07 10:55:00,32.2,25.5,30.17,SW,225,2.9,7.4,76,0.00,,,0.00,WUHU216HW,2013-01-07 16:55:00,
2013-01-07 11:00:00,32.4,25.7,30.17,SSW,203,7.2,7.2,76,0.00,,,0.00,WUHU216HW,2013-01-07 17:00:00,
2013-01-07 11:05:00,32.4,25.7,30.17,SSW,203,3.6,7.4,76,0.00,,,0.00,WUHU216HW,2013-01-07 17:05:00,
2013-01-07 11:10:00,32.8,26.0,30.17,SW,225,3.4,7.4,76,0.00,,,0.00,WUHU216HW,2013-01-07 17:10:00,
2013-01-07 11:15:00,32.8,25.7,30.16,SSW,203,4.9,9.4,75,0.00,,,0.00,WUHU216HW,2013-01-07 17:15:00,
2013-01-07 11:20:00,32.8,25.4,30.16,SSW,203,7.2,9.4,74,0.00,,,0.00,WUHU216HW,2013-01-07 17:20:00,
2013-01-07 11:25:00,32.8,25.4,30.16,SW,225,4.7,9.2,74,0.00,,,0.00,WUHU216HW,2013-01-07 17:25:00,
2013-01-07 11:30:00,32.8,25.4,30.16,SW,225,4.7,8.1,74,0.00,,,0.00,WUHU216HW,2013-01-07 17:30:00,
2013-01-07 11:35:00,32.8,25.4,30.16,WSW,248,4.9,7.4,74,0.00,,,0.00,WUHU216HW,2013-01-07 17:35:00,
2013-01-07 11:40:00,32.8,25.4,30.16,SSW,203,2.9,7.4,74,0.00,,,0.00,WUHU216HW,2013-01-07 17:40:00,
2013-01-07 11:45:00,32.8,25.4,30.16,WSW,248,5.1,7.6,74,0.00,,,0.00,WUHU216HW,2013-01-07 17:45:00,
2013-01-07 11:50:00,32.8,25.4,30.16,SW,225,5.1,8.5,74,0.00,,,0.00,WUHU216HW,2013-01-07 17:50:00,
2013-01-07 11:55:00,32.9,25.5,30.16,South,180,6.3,8.5,74,0.00,,,0.00,WUHU216HW,2013-01-07 17:55:00,
2013-01-07 12:00:00,33.1,25.7,30.15,WSW,248,3.8,8.5,74,0.00,,,0.00,WUHU216HW,2013-01-07 18:00:00,
2013-01-07 12:05:00,33.3,25.8,30.14,SSW,203,2.9,8.5,74,0.00,,,0.00,WUHU216HW,2013-01-07 18:05:00,
2013-01-07 12:11:00,33.5,26.0,30.14,SW,225,2.7,6.3,74,0.00,,,0.00,WUHU216HW,2013-01-07 18:11:00,
2013-01-07 12:16:00,33.8,26.0,30.14,West,270,3.1,6.0,73,0.00,,,0.00,WUHU216HW,2013-01-07 18:16:00,
2013-01-07 12:21:00,34.0,26.2,30.14,SW,225,4.3,6.0,73,0.00,,,0.00,WUHU216HW,2013-01-07 18:21:00,
2013-01-07 12:26:00,34.0,26.2,30.15,SE,135,4.0,6.0,73,0.00,,,0.00,WUHU216HW,2013-01-07 18:26:00,
2013-01-07 12:31:00,34.2,26.4,30.14,West,270,4.3,6.0,73,0.00,,,0.00,WUHU216HW,2013-01-07 18:31:00,
2013-01-07 12:36:00,34.4,26.6,30.14,SSW,203,4.5,7.2,73,0.00,,,0.00,WUHU216HW,2013-01-07 18:36:00,
2013-01-07 12:41:00,34.6,26.7,30.14,SSW,203,2.0,7.2,73,0.00,,,0.00,WUHU216HW,2013-01-07 18:41:00,
2013-01-07 12:46:00,34.7,26.9,30.14,South,180,2.2,7.2,73,0.00,,,0.00,WUHU216HW,2013-01-07 18:46:00,
2013-01-07 12:51:00,34.9,27.1,30.14,WSW,248,6.5,9.6,73,0.00,,,0.00,WUHU216HW,2013-01-07 18:51:00,
2013-01-07 12:56:00,35.3,27.5,30.14,West,270,2.2,9.6,73,0.00,,,0.00,WUHU216HW,2013-01-07 18:56:00,
2013-01-07 13:01:00,35.5,27.6,30.14,SSW,203,7.2,7.2,73,0.00,,,0.00,WUHU216HW,2013-01-07 19:01:00,
2013-01-07 13:06:00,35.6,27.5,30.14,WNW,293,4.7,8.3,72,0.00,,,0.00,WUHU216HW,2013-01-07 19:06:00,
2013-01-07 13:11:00,35.6,27.5,30.14,SSW,203,1.8,8.3,72,0.00,,,0.00,WUHU216HW,2013-01-07 19:11:00,
2013-01-07 13:16:00,35.8,27.6,30.14,SSE,158,2.0,5.4,72,0.00,,,0.00,WUHU216HW,2013-01-07 19:16:00,
2013-01-07 13:21:00,36.0,27.8,30.13,SW,225,6.9,6.9,72,0.00,,,0.00,WUHU216HW,2013-01-07 19:21:00,
2013-01-07 13:26:00,36.4,27.9,30.13,SW,225,2.0,6.9,71,0.00,,,0.00,WUHU216HW,2013-01-07 19:26:00,
2013-01-07 13:31:00,36.5,28.1,30.13,WSW,248,1.8,6.9,71,0.00,,,0.00,WUHU216HW,2013-01-07 19:31:00,
2013-01-07 13:36:00,36.7,28.3,30.13,SSW,203,1.6,3.4,71,0.00,,,0.00,WUHU216HW,2013-01-07 19:36:00,
2013-01-07 13:41:00,36.7,28.3,30.14,SSW,203,4.3,6.0,71,0.00,,,0.00,WUHU216HW,2013-01-07 19:41:00,
2013-01-07 13:46:00,36.7,28.3,30.14,SW,225,3.4,8.5,71,0.00,,,0.00,WUHU216HW,2013-01-07 19:46:00,
2013-01-07 13:51:00,36.9,28.5,30.14,SSW,203,4.5,8.5,71,0.00,,,0.00,WUHU216HW,2013-01-07 19:51:00,
2013-01-07 13:56:00,37.1,28.6,30.14,West,270,4.9,7.6,71,0.00,,,0.00,WUHU216HW,2013-01-07 19:56:00,
2013-01-07 14:01:00,37.1,28.3,30.14,South,180,4.7,6.5,70,0.00,,,0.00,WUHU216HW,2013-01-07 20:01:00,
2013-01-07 14:06:00,37.3,28.4,30.14,South,180,3.4,6.7,70,0.00,,,0.00,WUHU216HW,2013-01-07 20:06:00,
2013-01-07 14:11:00,37.3,28.4,30.14,WSW,248,3.4,7.2,70,0.01,,,0.02,WUHU216HW,2013-01-07 20:11:00,
2013-01-07 14:16:00,37.4,28.6,30.14,WSW,248,2.5,7.2,70,0.01,,,0.02,WUHU216HW,2013-01-07 20:16:00,
2013-01-07 14:19:00,37.4,28.3,30.14,SW,225,5.6,7.2,69,0.01,,,0.02,WUHU216HW,2013-01-07 20:19:00,
2013-01-07 14:24:00,37.4,28.6,30.14,SSW,203,5.4,6.9,70,0.01,,,0.02,WUHU216HW,2013-01-07 20:24:00,
2013-01-07 14:29:00,37.4,28.3,30.14,West,270,2.5,6.9,69,0.01,,,0.02,WUHU216HW,2013-01-07 20:29:00,
2013-01-07 14:34:00,37.4,28.3,30.14,West,270,2.5,5.6,69,0.01,,,0.02,WUHU216HW,2013-01-07 20:34:00,
2013-01-07 14:39:00,37.4,28.3,30.14,WSW,248,5.1,5.4,69,0.01,,,0.02,WUHU216HW,2013-01-07 20:39:00,
2013-01-07 14:44:00,37.6,28.5,30.15,WSW,248,2.7,5.4,69,0.01,,,0.02,WUHU216HW,2013-01-07 20:44:00,
2013-01-07 14:49:00,37.6,28.5,30.15,SW,225,2.9,5.4,69,0.01,,,0.02,WUHU216HW,2013-01-07 20:49:00,
2013-01-07 14:54:00,37.8,28.5,30.14,SSW,203,2.0,5.4,69,0.01,,,0.02,WUHU216HW,2013-01-07 20:54:00,
2013-01-07 14:59:00,37.8,28.5,30.15,SW,225,2.9,5.4,69,0.01,,,0.02,WUHU216HW,2013-01-07 20:59:00,
2013-01-07 15:04:00,37.8,28.5,30.15,SSW,203,3.1,4.7,69,0.01,,,0.02,WUHU216HW,2013-01-07 21:04:00,
2013-01-07 15:09:00,37.8,28.5,30.15,South,180,3.6,6.7,69,0.00,,,0.02,WUHU216HW,2013-01-07 21:09:00,
2013-01-07 15:14:00,37.8,28.5,30.15,South,180,5.6,6.7,69,0.00,,,0.02,WUHU216HW,2013-01-07 21:14:00,
2013-01-07 15:19:00,37.8,28.5,30.14,SW,225,4.5,7.4,69,0.00,,,0.02,WUHU216HW,2013-01-07 21:19:00,
2013-01-07 15:24:00,37.8,28.5,30.15,SW,225,6.0,7.4,69,0.00,,,0.02,WUHU216HW,2013-01-07 21:24:00,
2013-01-07 15:29:00,37.8,28.5,30.15,SSW,203,4.0,7.2,69,0.00,,,0.02,WUHU216HW,2013-01-07 21:29:00,
2013-01-07 15:34:00,37.8,28.5,30.15,South,180,4.5,7.2,69,0.00,,,0.02,WUHU216HW,2013-01-07 21:34:00,
2013-01-07 15:39:00,37.8,28.5,30.16,SSW,203,3.4,4.9,69,0.00,,,0.02,WUHU216HW,2013-01-07 21:39:00,
2013-01-07 15:44:00,37.8,28.5,30.16,South,180,2.5,4.9,69,0.00,,,0.02,WUHU216HW,2013-01-07 21:44:00,
2013-01-07 15:49:00,37.8,28.5,30.16,SSW,203,3.6,5.1,69,0.00,,,0.02,WUHU216HW,2013-01-07 21:49:00,
2013-01-07 15:54:00,37.6,28.5,30.16,NE,45,0.7,5.1,69,0.00,,,0.02,WUHU216HW,2013-01-07 21:54:00,
2013-01-07 15:59:00,37.4,28.3,30.16,South,180,0.2,3.6,69,0.00,,,0.02,WUHU216HW,2013-01-07 21:59:00,
2013-01-07 16:04:00,37.3,28.1,30.16,SSW,203,1.6,2.0,69,0.00,,,0.02,WUHU216HW,2013-01-07 22:04:00,
2013-01-07 16:09:00,37.1,27.9,30.16,SW,225,1.6,3.4,69,0.00,,,0.02,WUHU216HW,2013-01-07 22:09:00,
2013-01-07 16:14:00,36.9,27.7,30.17,SSW,203,2.5,3.4,69,0.00,,,0.02,WUHU216HW,2013-01-07 22:14:00,
2013-01-07 16:19:00,36.7,27.6,30.16,SSW,203,5.4,5.4,69,0.00,,,0.02,WUHU216HW,2013-01-07 22:19:00,
2013-01-07 16:24:00,36.5,27.4,30.17,SSW,203,2.7,6.9,69,0.00,,,0.02,WUHU216HW,2013-01-07 22:24:00,
2013-01-07 16:29:00,36.4,27.5,30.17,SSW,203,3.1,6.9,70,0.00,,,0.02,WUHU216HW,2013-01-07 22:29:00,
2013-01-07 16:34:00,36.2,27.4,30.17,South,180,2.2,4.0,70,0.00,,,0.02,WUHU216HW,2013-01-07 22:34:00,
2013-01-07 16:39:00,36.0,27.2,30.17,SSW,203,3.4,3.6,70,0.00,,,0.02,WUHU216HW,2013-01-07 22:39:00,
2013-01-07 16:44:00,35.6,26.8,30.17,SSW,203,3.4,3.6,70,0.00,,,0.02,WUHU216HW,2013-01-07 22:44:00,
2013-01-07 16:49:00,35.5,26.6,30.17,West,270,0.4,3.4,70,0.00,,,0.02,WUHU216HW,2013-01-07 22:49:00,
2013-01-07 16:54:00,35.1,26.3,30.17,SSW,203,0.4,2.5,70,0.00,,,0.02,WUHU216HW,2013-01-07 22:54:00,
2013-01-07 16:59:00,34.9,26.1,30.17,SSW,203,1.8,4.5,70,0.00,,,0.02,WUHU216HW,2013-01-07 22:59:00,
2013-01-07 17:04:00,34.6,26.1,30.17,SW,225,0.4,4.5,71,0.00,,,0.02,WUHU216HW,2013-01-07 23:04:00,
2013-01-07 17:09:00,34.4,25.9,30.18,SW,225,1.8,2.5,71,0.00,,,0.02,WUHU216HW,2013-01-07 23:09:00,
2013-01-07 17:14:00,34.2,25.4,30.18,SW,225,0.0,2.2,70,0.00,,,0.02,WUHU216HW,2013-01-07 23:14:00,
2013-01-07 17:19:00,33.8,25.0,30.18,SW,225,0.4,1.8,70,0.00,,,0.02,WUHU216HW,2013-01-07 23:19:00,
2013-01-07 17:24:00,33.7,24.8,30.18,SSE,158,0.2,0.7,70,0.00,,,0.02,WUHU216HW,2013-01-07 23:24:00,
2013-01-07 17:29:00,33.5,24.7,30.19,SE,135,0.2,0.9,70,0.00,,,0.02,WUHU216HW,2013-01-07 23:29:00,
2013-01-07 17:34:00,33.1,24.4,30.19,SW,225,0.2,1.8,70,0.00,,,0.02,WUHU216HW,2013-01-07 23:34:00,
2013-01-07 17:39:00,32.8,24.4,30.19,SW,225,0.0,1.8,71,0.00,,,0.02,WUHU216HW,2013-01-07 23:39:00,
2013-01-07 17:44:00,32.8,24.4,30.19,SW,225,0.0,1.1,71,0.00,,,0.02,WUHU216HW,2013-01-07 23:44:00,
2013-01-07 17:49:00,32.4,24.0,30.19,SSW,203,0.4,0.4,71,0.00,,,0.02,WUHU216HW,2013-01-07 23:49:00,
2013-01-07 17:54:00,32.2,23.9,30.19,South,180,0.0,0.4,71,0.00,,,0.02,WUHU216HW,2013-01-07 23:54:00,
2013-01-07 17:59:00,32.0,23.8,30.19,SSE,158,0.0,0.4,71,0.00,,,0.02,WUHU216HW,2013-01-07 23:59:00,
2013-01-07 18:04:00,31.9,23.9,30.19,SSE,158,0.0,0.4,72,0.00,,,0.02,WUHU216HW,2013-01-08 00:04:00,
2013-01-07 18:09:00,31.5,23.5,30.19,SSE,158,0.0,0.0,72,0.00,,,0.02,WUHU216HW,2013-01-08 00:09:00,
2013-01-07 18:14:00,31.3,23.3,30.19,SSW,203,0.4,2.2,72,0.00,,,0.02,WUHU216HW,2013-01-08 00:14:00,
2013-01-07 18:19:00,31.1,23.1,30.19,SSE,158,1.1,2.5,72,0.00,,,0.02,WUHU216HW,2013-01-08 00:19:00,
2013-01-07 18:24:00,31.0,23.3,30.20,SSW,203,0.4,2.5,73,0.00,,,0.02,WUHU216HW,2013-01-08 00:24:00,
2013-01-07 18:29:00,31.0,23.3,30.19,SW,225,0.7,2.5,73,0.00,,,0.02,WUHU216HW,2013-01-08 00:29:00,
2013-01-07 18:34:00,30.8,23.1,30.19,South,180,0.0,2.5,73,0.00,,,0.02,WUHU216HW,2013-01-08 00:34:00,
2013-01-07 18:39:00,30.6,23.0,30.19,SE,135,0.0,2.5,73,0.00,,,0.02,WUHU216HW,2013-01-08 00:39:00,
2013-01-07 18:44:00,30.4,22.8,30.19,SE,135,0.0,0.4,73,0.00,,,0.02,WUHU216HW,2013-01-08 00:44:00,
2013-01-07 18:49:00,30.1,22.4,30.19,SE,135,0.4,0.4,73,0.00,,,0.02,WUHU216HW,2013-01-08 00:49:00,
2013-01-07 18:54:00,29.9,22.6,30.19,SE,135,0.0,0.4,74,0.00,,,0.02,WUHU216HW,2013-01-08 00:54:00,
2013-01-07 18:59:00,29.5,22.2,30.19,SSW,203,0.0,1.8,74,0.00,,,0.02,WUHU216HW,2013-01-08 00:59:00,
2013-01-07 19:04:00,29.3,22.4,30.19,SSW,203,0.0,1.8,75,0.00,,,0.02,WUHU216HW,2013-01-08 01:04:00,
2013-01-07 19:09:00,29.2,22.2,30.19,SW,225,0.0,1.6,75,0.00,,,0.02,WUHU216HW,2013-01-08 01:09:00,
2013-01-07 19:14:00,29.0,22.1,30.19,SW,225,0.4,1.6,75,0.00,,,0.02,WUHU216HW,2013-01-08 01:14:00,
2013-01-07 19:19:00,28.8,21.9,30.19,SW,225,0.0,0.4,75,0.00,,,0.02,WUHU216HW,2013-01-08 01:19:00,
2013-01-07 19:24:00,28.4,21.8,30.19,SW,225,0.7,0.7,76,0.00,,,0.02,WUHU216HW,2013-01-08 01:24:00,
2013-01-07 19:29:00,28.4,21.5,30.19,SW,225,0.7,0.7,75,0.00,,,0.02,WUHU216HW,2013-01-08 01:29:00,
2013-01-07 19:34:00,28.3,21.3,30.19,SSW,203,0.9,1.1,75,0.00,,,0.02,WUHU216HW,2013-01-08 01:34:00,
2013-01-07 19:39:00,28.3,21.3,30.19,SSW,203,0.0,1.1,75,0.00,,,0.02,WUHU216HW,2013-01-08 01:39:00,
2013-01-07 19:44:00,28.1,21.2,30.19,SSW,203,0.0,0.9,75,0.00,,,0.02,WUHU216HW,2013-01-08 01:44:00,
2013-01-07 19:49:00,27.7,20.8,30.19,SSW,203,0.2,0.4,75,0.00,,,0.02,WUHU216HW,2013-01-08 01:49:00,
2013-01-07 19:54:00,27.7,21.1,30.19,SSW,203,0.0,0.4,76,0.00,,,0.02,WUHU216HW,2013-01-08 01:54:00,
2013-01-07 19:59:00,27.7,21.4,30.19,SSE,158,0.4,0.4,77,0.00,,,0.02,WUHU216HW,2013-01-08 01:59:00,
2013-01-07 20:04:00,27.7,21.4,30.19,NE,45,0.0,0.9,77,0.00,,,0.02,WUHU216HW,2013-01-08 02:04:00,
2013-01-07 20:09:00,27.7,21.4,30.19,SSW,203,0.9,1.1,77,0.00,,,0.02,WUHU216HW,2013-01-08 02:09:00,
2013-01-07 20:14:00,27.7,21.4,30.19,SSW,203,0.0,1.1,77,0.00,,,0.02,WUHU216HW,2013-01-08 02:14:00,
2013-01-07 20:19:00,27.5,21.3,30.19,SSW,203,0.4,0.9,77,0.00,,,0.02,WUHU216HW,2013-01-08 02:19:00,
2013-01-07 20:24:00,27.5,21.3,30.18,SSW,203,0.0,0.7,77,0.00,,,0.02,WUHU216HW,2013-01-08 02:24:00,
2013-01-07 20:29:00,27.4,21.1,30.19,SSW,203,0.0,0.4,77,0.00,,,0.02,WUHU216HW,2013-01-08 02:29:00,
2013-01-07 20:34:00,27.4,21.3,30.19,WSW,248,0.0,0.0,78,0.00,,,0.02,WUHU216HW,2013-01-08 02:34:00,
2013-01-07 20:39:00,27.0,20.7,30.19,SW,225,0.0,0.0,77,0.00,,,0.02,WUHU216HW,2013-01-08 02:39:00,
2013-01-07 20:44:00,26.8,20.5,30.19,SW,225,0.0,0.2,77,0.00,,,0.02,WUHU216HW,2013-01-08 02:44:00,
2013-01-07 20:49:00,26.5,20.2,30.19,SW,225,0.0,0.2,77,0.00,,,0.02,WUHU216HW,2013-01-08 02:49:00,
2013-01-07 20:54:00,26.3,20.4,30.19,SW,225,0.0,0.0,78,0.00,,,0.02,WUHU216HW,2013-01-08 02:54:00,
2013-01-07 20:59:00,26.3,20.4,30.19,SW,225,0.0,0.4,78,0.00,,,0.02,WUHU216HW,2013-01-08 02:59:00,
2013-01-07 21:04:00,26.1,20.2,30.19,SW,225,0.2,0.9,78,0.00,,,0.02,WUHU216HW,2013-01-08 03:04:00,
2013-01-07 21:09:00,25.7,20.1,30.19,SW,225,0.9,1.6,79,0.00,,,0.02,WUHU216HW,2013-01-08 03:09:00,
2013-01-07 21:14:00,25.6,20.0,30.19,SSW,203,0.2,1.6,79,0.00,,,0.02,WUHU216HW,2013-01-08 03:14:00,
2013-01-07 21:19:00,25.6,20.0,30.19,South,180,0.0,1.6,79,0.00,,,0.02,WUHU216HW,2013-01-08 03:19:00,
2013-01-07 21:24:00,25.6,20.0,30.19,South,180,0.7,0.7,79,0.00,,,0.02,WUHU216HW,2013-01-08 03:24:00,
2013-01-07 21:29:00,25.6,20.0,30.19,SSW,203,0.4,0.7,79,0.00,,,0.02,WUHU216HW,2013-01-08 03:29:00,
2013-01-07 21:34:00,25.6,20.0,30.19,SW,225,0.0,1.6,79,0.00,,,0.02,WUHU216HW,2013-01-08 03:34:00,
2013-01-07 21:38:00,25.7,20.4,30.20,South,180,2.0,2.0,80,0.00,,,0.02,WUHU216HW,2013-01-08 03:38:00,
2013-01-07 21:43:00,25.7,20.4,30.19,SW,225,2.0,3.4,80,0.00,,,0.02,WUHU216HW,2013-01-08 03:43:00,
2013-01-07 21:49:00,25.9,20.6,30.20,WSW,248,0.0,3.4,80,0.00,,,0.02,WUHU216HW,2013-01-08 03:49:00,
2013-01-07 21:54:00,25.9,20.6,30.20,SW,225,0.7,2.0,80,0.00,,,0.02,WUHU216HW,2013-01-08 03:54:00,
2013-01-07 21:59:00,25.7,20.4,30.19,SW,225,0.0,1.1,80,0.00,,,0.02,WUHU216HW,2013-01-08 03:59:00,
2013-01-07 22:04:00,25.9,20.6,30.19,SW,225,0.4,1.1,80,0.00,,,0.02,WUHU216HW,2013-01-08 04:04:00,
2013-01-07 22:09:00,25.9,20.6,30.19,SW,225,0.0,1.1,80,0.00,,,0.02,WUHU216HW,2013-01-08 04:09:00,
2013-01-07 22:14:00,25.7,20.4,30.20,SW,225,0.4,1.1,80,0.00,,,0.02,WUHU216HW,2013-01-08 04:14:00,
2013-01-07 22:18:00,25.2,20.0,30.20,SSW,203,0.2,0.9,80,0.00,,,0.02,WUHU216HW,2013-01-08 04:18:00,
2013-01-07 22:23:00,25.2,20.0,30.20,SSW,203,0.7,1.1,80,0.00,,,0.02,WUHU216HW,2013-01-08 04:23:00,
2013-01-07 22:28:00,25.2,20.0,30.20,SSW,203,0.0,1.1,80,0.00,,,0.02,WUHU216HW,2013-01-08 04:28:00,
2013-01-07 22:33:00,25.2,20.0,30.20,SSW,203,2.0,2.0,80,0.00,,,0.02,WUHU216HW,2013-01-08 04:33:00,
2013-01-07 22:38:00,25.2,20.0,30.20,WSW,248,0.7,2.0,80,0.00,,,0.02,WUHU216HW,2013-01-08 04:38:00,
2013-01-07 22:43:00,25.4,20.1,30.20,SSW,203,1.8,2.0,80,0.00,,,0.02,WUHU216HW,2013-01-08 04:43:00,
2013-01-07 22:48:00,25.6,20.3,30.19,SSW,203,0.0,2.0,80,0.00,,,0.02,WUHU216HW,2013-01-08 04:48:00,
2013-01-07 22:53:00,25.6,20.5,30.20,SW,225,0.0,1.8,81,0.00,,,0.02,WUHU216HW,2013-01-08 04:53:00,
2013-01-07 22:58:00,25.7,20.7,30.20,South,180,1.1,1.8,81,0.00,,,0.02,WUHU216HW,2013-01-08 04:58:00,
2013-01-07 23:00:00,25.7,20.7,30.20,SSW,203,0.7,1.8,81,0.00,,,0.02,WUHU216HW,2013-01-08 05:00:00,
2013-01-07 23:02:00,25.7,20.7,30.20,SSW,203,0.2,1.8,81,0.00,,,0.02,WUHU216HW,2013-01-08 05:02:00,
2013-01-07 23:03:00,25.7,20.7,30.20,SSW,203,0.0,1.8,81,0.00,,,0.02,WUHU216HW,2013-01-08 05:03:00,
2013-01-07 23:08:00,25.6,20.3,30.20,ESE,113,0.7,1.8,80,0.00,,,0.02,WUHU216HW,2013-01-08 05:08:00,
2013-01-07 23:13:00,25.2,20.0,30.20,ENE,68,0.4,1.3,80,0.00,,,0.02,WUHU216HW,2013-01-08 05:13:00,
2013-01-07 23:18:00,25.0,19.8,30.20,ENE,68,0.0,1.3,80,0.00,,,0.02,WUHU216HW,2013-01-08 05:18:00,
2013-01-07 23:23:00,24.8,19.6,30.20,SSW,203,1.3,2.0,80,0.00,,,0.02,WUHU216HW,2013-01-08 05:23:00,
2013-01-07 23:28:00,24.8,19.9,30.20,SSW,203,1.1,2.0,81,0.00,,,0.02,WUHU216HW,2013-01-08 05:28:00,
2013-01-07 23:33:00,24.8,19.9,30.20,SSW,203,0.0,1.6,81,0.00,,,0.02,WUHU216HW,2013-01-08 05:33:00,
2013-01-07 23:38:00,24.8,19.9,30.21,SSW,203,0.0,1.1,81,0.00,,,0.02,WUHU216HW,2013-01-08 05:38:00,
2013-01-07 23:43:00,24.8,19.9,30.21,South,180,0.4,1.1,81,0.00,,,0.02,WUHU216HW,2013-01-08 05:43:00,
2013-01-07 23:48:00,24.8,19.9,30.21,SW,225,1.1,2.5,81,0.00,,,0.02,WUHU216HW,2013-01-08 05:48:00,
2013-01-07 23:53:00,24.8,20.2,30.21,SW,225,1.3,2.5,82,0.00,,,0.02,WUHU216HW,2013-01-08 05:53:00,
2013-01-07 23:58:00,24.8,20.2,30.21,SSW,203,0.0,2.5,82,0.00,,,0.02,WUHU216HW,2013-01-08 05:58:00,